Location: Makakahi
(40.6833°S, 175.6000°E)
Time: 19:19:22
(UTC+00:00)

FENGYUN 1C DEB - Pass Details

Date: 11 February 2026
Orbit: 839 x 906 km, 98.9° (Epoch: 9 March)

Event Time Altitude Azimuth Distance (km) Brightness Sun altitude
Rises 10:52:17 0° 186° (S) 3,441 ? -30.7°
Reaches altitude 10° 10:56:00 10° 211° (SSW) 2,506 ? -31.0°
Maximum altitude 10:58:27 13° 238° (WSW) 2,286 ? -31.2°
Drops below altitude 10° 11:00:56 10° 265° (W) 2,510 ? -31.5°
Sets 11:04:40 0° 290° (WNW) 3,452 ? -31.8°
